Regional Weather Roundup
Issued by NWS

Home | Current Version | Previous Version | Text Only | Print | Product List | Glossary Off
Versions: 1 2 3 4 5 6 7 8 9 10 11 12 13 14 15 16 17 18 19 20 21 22 23 24 25 26 27 28 29 30 31 32 33 34 35 36 37 38 39 40 41 42 43 44 45 46 47 48 49 50

000
ASUS45 KBOU 192207
RWRCO

WEATHER ROUNDUP FOR COLORADO
NATIONAL WEATHER SERVICE DENVER/BOULDER CO
400 PM MDT SAT AUG 19 2017

NOTE: "FAIR" INDICATES FEW OR NO CLOUDS BELOW 12000 FEET WITH NO
SIGNIFICANT WEATHER AND/OR OBSTRUCTIONS TO VISIBILITY.

COZ001>005-013-030-031-192300-
...NORTHWEST COLORADO...

CITY           SKY/WX    TMP DP  RH WIND       PRES   REMARKS
CRAIG          FAIR      88  22   9 W9G21     30.14F
HAYDEN         FAIR      84  24  11 W15G23    30.18
MEEKER         FAIR      83  35  18 SW10      30.17F
RABBIT EARS PA FAIR      66  27  22 W8G23     30.50S
STEAMBOAT SPGS FAIR      83  24  11 SW7G23    30.20S
WALDEN         FAIR      77  21  12 SW8G24    30.30F
$$

COZ006>008-011-192300-
...WEST CENTRAL VALLEYS...

CITY           SKY/WX    TMP DP  RH WIND       PRES   REMARKS
GRAND JUNCTION FAIR      92  32  12 CALM      30.04F
MONTROSE       FAIR      88  35  15 N10       30.13F
EAGLE          PTSUNNY   82  32  16 NW10G28   30.20F
RIFLE          FAIR      86  33  15 NW8       30.12S
DELTA          FAIR      93  30  10 NW3       30.08F
NUCLA          FAIR      86  25  10 SW5       30.16F
$$

COZ017>023-064>068-192300-
...SOUTHWEST COLORADO...

CITY           SKY/WX    TMP DP  RH WIND       PRES   REMARKS
DURANGO        FAIR      86  28  12 N10       30.18F
CORTEZ         FAIR      91  26   9 NW12G21   30.12F
PAGOSA SPRINGS FAIR      81  25  12 NW10G24   30.28S HAZE
TELLURIDE      FAIR      73  29  19 NE5       30.42F
WOLF CREEK PAS CLOUDY    55  32  41 NW5       30.67S
$$

COZ009-010-012-014-032>034-037-058>063-192300-
...CENTRAL COLORADO...

CITY           SKY/WX    TMP DP  RH WIND       PRES   REMARKS
ASPEN          FAIR      76  33  21 N6        30.29F
BUENA VISTA    FAIR      79  29  16 NW18G30   30.26S
COPPER MTN     PTSUNNY   63  27  25 W14G24    30.62F
BERTHOUD PASS  FAIR      54  50  87 W35G43    30.63F
COTTONWOOD PAS FAIR      77  21  12 NW6G18    30.42F
GUNNISON       FAIR      79  37  22 NE8       30.26F
KREMMLING      FAIR      82  23  11 SW12G20   30.23F
LEADVILLE      PTSUNNY   67  25  20 N8G17     30.42F
SALIDA         FAIR      87  23   9 SW10G16   30.27F
SUNLIGHT       PTSUNNY   55  34  44 SW10G16   30.57F
WILKERSON PASS CLOUDY    63  25  23 SW9G16    30.57S
$$

COZ069>075-192300-
...SAN LUIS VALLEY/SANGRE DE CRISTO MOUNTAINS...

CITY           SKY/WX    TMP DP  RH WIND       PRES   REMARKS
ALAMOSA        FAIR      83  29  14 W6        30.23F
DEL NORTE      FAIR      78  33  19 SW9       30.28S
LA VETA PASS   NOT AVBL
SAGUACHE       FAIR      79  34  19 S3        30.26F
$$

COZ035-036-038>040-192300-
...NORTHERN COLORADO FRONT RANGE...

CITY           SKY/WX    TMP DP  RH WIND       PRES   REMARKS
DENVER INTL AP FAIR      91  32  12 S7        30.01F
DMNS CITY PARK   N/A     90  28  11 N2G17     30.00F
AURORA         MOSUNNY   92  37  14 NE8       30.04F
FRONT RANGE AP FAIR      93  34  12 SW14      30.03F
ERIE MUNI ARPT FAIR      95  26   8 NW9       30.02F
BOULDER MUN AP FAIR      91  32  12 W9        29.99F
CENTENNIAL     FAIR      91  29  11 SE6       30.05F
BROOMFIELD     MOSUNNY   90  32  12 W6        30.03F
FORT COLLINS   FAIR      93  44  18 MISG      29.98F
LONGMONT       FAIR      96  35  11 N5        29.99F
$$

COZ041-046-047-076>085-087-088-192300-
...PIKES PEAK/PALMER DIVIDE AND SOUTHERN FOOTHILLS...

CITY           SKY/WX    TMP DP  RH WIND       PRES   REMARKS
COLO. SPRINGS  FAIR      88  43  20 S14G20    30.11F
A. F. ACADEMY  FAIR      85  35  17 S15       30.11F
SCHRIEVER AFB  FAIR      85  39  19 S14       30.12F
CHEYENNE MTN   PTSUNNY   80  36  20 SE8G16    30.12F
ELLICOTT       NOT AVBL
FALCON         FAIR      85  34  16 SE8G18    30.17F
FORT CARSON    FAIR      87  41  20 S5        30.07F
LIMON          FAIR      89  38  16 S8        30.04F
MONUMENT HILL  FAIR      79  37  22 CALM      30.19F
CANON CITY     SUNNY     93  45  18 E7        30.03F
WALSENBURG     NOT AVBL
TRINIDAD       FAIR      86  38  18 S5        30.10F
$$

COZ042>045-048>051-090-091-192300-
...NORTHEAST COLORADO...

CITY           SKY/WX    TMP DP  RH WIND       PRES   REMARKS
GREELEY ARPT   FAIR      92  41  17 NE7       29.97F
AKRON          FAIR      94  33  11 NW13      29.97F
BURLINGTON     FAIR      91  56  30 SW13      29.97F
WRAY           NOT AVBL
YUMA           FAIR      93  39  15 NW6       29.93S
STERLING       FAIR      91  46  21 S10       29.90F
HOLYOKE        FAIR      99  59  26 SE6       29.90F
FORT MORGAN    FAIR      97  32  10 W7        29.96F
$$

COZ086-089-092>099-192300-
...SOUTHEAST COLORADO...

CITY           SKY/WX    TMP DP  RH WIND       PRES   REMARKS
PUEBLO         FAIR      95  35  12 VRB3      29.97F
LA JUNTA       FAIR      96  46  18 SW14      29.96F
LAMAR          FAIR      93  55  27 S22G29    29.91F
SPRINGFIELD      N/A     83  53  35 W6        30.04R
$$



USA.gov is the U.S. government's official web portal to all federal, state and local government web resources and services.